Regional Weather Roundup
Issued by NWS Tiyan, Guam

Home | Current Version | Previous Version | Text Only | Print | Product List | Glossary On
Versions: 1 2 3 4 5 6 7 8 9 10 11 12 13 14 15 16 17 18 19 20 21 22 23 24 25 26 27 28 29 30 31 32 33 34 35 36 37 38 39 40 41 42 43 44 45 46 47 48 49 50
000
ASGM40 PGUM 212112
RWRGUM
WEATHER ROUNDUP FOR THE MARIANAS
NATIONAL WEATHER SERVICE TIYAN GU
700 AM CHST SUN JAN 22 2017

GUZ001>004-212200-
MARIANA ISLANDS-

CITY           SKY/WX    TMP DP  RH WIND       PRES   REMARKS
GUAM AIRPORT   CLOUDY    79  73  83 NE14G23   29.97R
ANDERSEN AFB   CLOUDY    79  72  78 NE20G28   29.99R
ROTA AIRPORT   MOCLDY    79  72  78 NE17G25   29.98
TINIAN AP      PTCLDY    79  72  78 NE17      29.98R
SAIPAN AP      PTCLDY    79  72  78 NE15G26   29.99R

$$




USA.gov is the U.S. government's official web portal to all federal, state and local government web resources and services.